Weather History for Stafford, VA

Change the Weather History Date:

Friday, March 7, 2014

  Actual Average (KNYG) Record (KNYG)
Temperature  
Mean Temperature 38 °F -  
Max Temperature 46 °F 49 °F 69 °F (2005)
Min Temperature 31 °F 32 °F 26 °F (1999)
Degree Days  
Heating Degree Days 26    
Moisture  
Dew Point 29 °F    
Average Humidity 72    
Maximum Humidity 82    
Minimum Humidity 58    
Precipitation  
Precipitation 0.00 in - - ()
Sea Level Pressure  
Sea Level Pressure 30.15 in    
Wind  
Wind Speed 8 mph (North)    
Max Wind Speed 14 mph    
Max Gust Speed 21 mph    
Visibility 10 miles    
Events      
Averages and records for this station are not official NWS values.
T = Trace of Precipitation, MM = Missing Value Source: NWS Daily Summary

Daily Weather History Graph

Daily Weather History Graph

Search for Another Location

Airport:

Trip Planner

Search our weather history database for the weather conditions in past years. The results will help you decide how hot, cold, wet, or windy it might be!

Date:

Astronomy

Mar. 07, 2014 Rise Set
Actual Time 6:33 AM EST 6:09 PM EST
Civil Twilight 6:06 AM EST 6:35 PM EST
Nautical Twilight 5:36 AM EST 7:06 PM EST
Astronomical Twilight 5:05 AM EST 7:36 PM EST
Moon 10:29 AM EST (3/7) 12:07 AM EST (3/7)
Length of Visible Light 12h 28m
Length of Day
11h 35m
Waxing Crescent, 42% of the Moon is Illuminated
Mar 7
Waxing Crescent
Mar 8
First Quarter
Mar 16
Full
Mar 23
Last Quarter
Mar 30
New

Hourly Weather History & Observations

Time (EST) Temp. Windchill Dew Point Humidity Pressure Visibility Wind Dir Wind Speed Gust Speed Precip Events Conditions
12:15 AM 31.6 °F 25.1 °F 25.3 °F 78% 30.39 in 10.0 mi NE 6.9 mph - N/A   Overcast
12:35 AM 31.5 °F 24.9 °F 25.3 °F 78% 30.38 in 10.0 mi NE 6.9 mph - N/A   Overcast
12:55 AM 31.5 °F 25.8 °F 25.3 °F 78% 30.37 in 10.0 mi NE 5.8 mph - N/A   Overcast
1:15 AM 31.5 °F 25.8 °F 25.5 °F 79% 30.35 in 10.0 mi NNE 5.8 mph - N/A   Overcast
1:35 AM 31.6 °F 26.0 °F 25.7 °F 79% 30.35 in 10.0 mi NNE 5.8 mph - N/A   Overcast
1:55 AM 31.6 °F 24.4 °F 25.7 °F 79% 30.33 in 10.0 mi NE 8.1 mph - N/A   Overcast
2:15 AM 31.6 °F 26.0 °F 25.7 °F 79% 30.32 in 10.0 mi NNE 5.8 mph - N/A   Overcast
2:35 AM 31.5 °F 25.8 °F 25.5 °F 79% 30.32 in 10.0 mi NNE 5.8 mph - N/A   Overcast
2:55 AM 31.6 °F 24.4 °F 25.5 °F 78% 30.30 in 10.0 mi North 8.1 mph - N/A   Overcast
3:15 AM 31.5 °F 25.8 °F 25.5 °F 79% 30.29 in 10.0 mi North 5.8 mph - N/A   Overcast
3:35 AM 31.6 °F 24.4 °F 25.7 °F 79% 30.29 in 10.0 mi NNE 8.1 mph - N/A   Overcast
3:50 AM 31.6 °F 24.4 °F 25.7 °F 79% 30.29 in 10.0 mi NNE 8.1 mph - N/A   Overcast
4:15 AM 31.6 °F 25.1 °F 25.7 °F 79% 30.28 in 10.0 mi NNE 6.9 mph - N/A   Overcast
4:35 AM 31.6 °F 23.7 °F 25.7 °F 79% 30.28 in 10.0 mi North 9.2 mph - N/A   Overcast
4:55 AM 31.6 °F 24.4 °F 25.7 °F 79% 30.28 in 10.0 mi NNE 8.1 mph 17.3 mph N/A   Overcast
5:15 AM 31.6 °F 24.4 °F 25.7 °F 79% 30.26 in 10.0 mi NNE 8.1 mph - N/A   Overcast
5:35 AM 31.8 °F 24.6 °F 25.9 °F 79% 30.26 in 10.0 mi North 8.1 mph 16.1 mph N/A   Overcast
5:55 AM 32.0 °F 24.8 °F 26.1 °F 79% 30.27 in 10.0 mi North 8.1 mph - N/A   Overcast
6:15 AM 32.0 °F 25.6 °F 26.2 °F 79% 30.27 in 10.0 mi NNE 6.9 mph - N/A   Overcast
6:35 AM 32.0 °F 25.6 °F 26.4 °F 80% 30.27 in 10.0 mi North 6.9 mph - N/A   Overcast
6:55 AM 32.0 °F 24.8 °F 26.6 °F 80% 30.25 in 10.0 mi North 8.1 mph - N/A   Overcast
7:15 AM 32.0 °F 24.8 °F 27.0 °F 82% 30.25 in 10.0 mi North 8.1 mph - N/A   Overcast
7:35 AM 32.0 °F 23.6 °F 27.1 °F 82% 30.24 in 10.0 mi North 10.4 mph 18.4 mph N/A   Overcast
7:55 AM 32.2 °F 25.0 °F 27.1 °F 82% 30.22 in 10.0 mi NNE 8.1 mph - N/A   Overcast
8:15 AM 32.9 °F 25.3 °F 27.0 °F 79% 30.22 in 10.0 mi NNE 9.2 mph - N/A   Overcast
8:35 AM 33.3 °F 25.1 °F 27.1 °F 78% 30.22 in 10.0 mi NNE 10.4 mph 17.3 mph N/A   Overcast
8:55 AM 33.8 °F 27.0 °F 27.5 °F 78% 30.22 in 10.0 mi North 8.1 mph - N/A   Overcast
9:15 AM 34.7 °F 26.9 °F 28.0 °F 77% 30.21 in 10.0 mi NNE 10.4 mph 18.4 mph N/A   Overcast
9:35 AM 34.7 °F 28.8 °F 27.9 °F 76% 30.20 in 10.0 mi NNE 6.9 mph - N/A   Mostly Cloudy
9:55 AM 35.6 °F 28.6 °F 28.4 °F 75% 30.20 in 10.0 mi NNE 9.2 mph 16.1 mph N/A   Clear
10:15 AM 37.8 °F 29.4 °F 29.8 °F 73% 30.19 in 10.0 mi NNE 13.8 mph 18.4 mph N/A   Clear
10:35 AM 37.9 °F 30.5 °F 29.8 °F 73% 30.19 in 10.0 mi NNE 11.5 mph 17.3 mph N/A   Clear
10:55 AM 38.8 °F 32.1 °F 30.2 °F 71% 30.18 in 10.0 mi North 10.4 mph 18.4 mph N/A   Clear
11:15 AM 39.2 °F 33.0 °F 30.2 °F 70% 30.17 in 10.0 mi NNE 9.2 mph - N/A   Scattered Clouds
11:35 AM 40.1 °F 33.2 °F 30.7 °F 69% 30.17 in 10.0 mi North 11.5 mph 17.3 mph N/A   Scattered Clouds
11:55 AM 40.8 °F 35.6 °F 31.3 °F 69% 30.15 in 10.0 mi NNE 8.1 mph - N/A   Clear
12:15 PM 41.5 °F 35.9 °F 31.3 °F 67% 30.14 in 10.0 mi NE 9.2 mph - N/A   Clear
12:35 PM 42.1 °F 36.6 °F 31.8 °F 67% 30.13 in 10.0 mi NNE 9.2 mph - N/A   Clear
12:55 PM 42.3 °F 35.9 °F 31.6 °F 66% 30.12 in 10.0 mi NNE 11.5 mph 16.1 mph N/A   Clear
1:15 PM 43.0 °F 36.4 °F 31.5 °F 64% 30.11 in 10.0 mi North 12.7 mph 18.4 mph N/A   Clear
1:35 PM 43.3 °F 38.6 °F 31.6 °F 63% 30.10 in 10.0 mi NNE 8.1 mph - N/A   Clear
1:55 PM 44.2 °F 39.2 °F 32.0 °F 62% 30.08 in 10.0 mi NNE 9.2 mph - N/A   Clear
2:15 PM 45.3 °F 39.3 °F 31.8 °F 59% 30.07 in 10.0 mi NNE 12.7 mph 20.7 mph N/A   Scattered Clouds
2:35 PM 46.4 °F 41.5 °F 32.5 °F 59% 30.06 in 10.0 mi North 10.4 mph 17.3 mph N/A   Scattered Clouds
2:55 PM 45.5 °F 40.3 °F 32.2 °F 60% 30.06 in 10.0 mi North 10.4 mph 20.7 mph N/A   Scattered Clouds
3:15 PM 46.6 °F - 32.5 °F 58% 30.05 in 10.0 mi North 12.7 mph 16.1 mph N/A   Mostly Cloudy
3:35 PM 45.5 °F 39.6 °F 32.0 °F 59% 30.04 in 10.0 mi North 12.7 mph - N/A   Scattered Clouds
3:55 PM 45.5 °F 39.2 °F 31.6 °F 58% 30.04 in 10.0 mi North 13.8 mph 20.7 mph N/A   Mostly Cloudy
4:15 PM 44.1 °F 37.7 °F 32.4 °F 63% 30.03 in 10.0 mi NNW 12.7 mph - N/A   Overcast
4:35 PM 44.6 °F 40.2 °F 31.6 °F 60% 30.02 in 10.0 mi North 8.1 mph 16.1 mph N/A   Mostly Cloudy
4:55 PM 43.7 °F 37.7 °F 31.3 °F 62% 30.02 in 10.0 mi North 11.5 mph 16.1 mph N/A   Mostly Cloudy
5:15 PM 42.8 °F 37.0 °F 31.1 °F 63% 30.02 in 10.0 mi NNW 10.4 mph - N/A   Scattered Clouds
5:35 PM 41.9 °F 37.5 °F 30.9 °F 65% 30.02 in 10.0 mi North 6.9 mph - N/A   Mostly Cloudy
5:55 PM 41.4 °F 36.8 °F 31.5 °F 68% 30.01 in 10.0 mi North 6.9 mph - N/A   Overcast
6:15 PM 41.0 °F 35.8 °F 30.6 °F 66% 30.01 in 10.0 mi North 8.1 mph - N/A   Mostly Cloudy
6:35 PM 40.3 °F 33.9 °F 30.7 °F 69% 30.01 in 10.0 mi NNW 10.4 mph - N/A   Scattered Clouds
6:55 PM 40.1 °F 34.1 °F 30.7 °F 69% 30.01 in 10.0 mi NNW 9.2 mph - N/A   Clear
7:15 PM 40.1 °F 36.1 °F 30.6 °F 69% 30.01 in 10.0 mi NNW 5.8 mph - N/A   Clear
7:35 PM 39.7 °F 35.6 °F 30.6 °F 70% 30.01 in 10.0 mi NNW 5.8 mph - N/A   Clear
7:55 PM 39.2 °F 33.0 °F 30.7 °F 72% 30.00 in 10.0 mi NNW 9.2 mph - N/A   Clear
8:15 PM 39.2 °F 33.0 °F 30.4 °F 71% 30.01 in 10.0 mi NNW 9.2 mph - N/A   Clear
8:35 PM 38.5 °F 32.7 °F 30.2 °F 72% 30.01 in 10.0 mi North 8.1 mph - N/A   Clear
8:55 PM 38.5 °F 32.1 °F 29.7 °F 71% 30.01 in 10.0 mi North 9.2 mph - N/A   Clear
9:15 PM 38.1 °F 31.7 °F 29.7 °F 72% 30.00 in 10.0 mi NNW 9.2 mph - N/A   Clear
9:30 PM 38.3 °F 31.9 °F 29.8 °F 72% 30.00 in 10.0 mi NNW 9.2 mph - N/A   Clear
9:55 PM 38.3 °F 31.9 °F 29.5 °F 71% 30.00 in 10.0 mi NNW 9.2 mph - N/A   Clear
10:15 PM 36.5 °F 31.0 °F 29.3 °F 75% 30.00 in 10.0 mi NNW 6.9 mph - N/A   Clear
10:35 PM 36.9 °F 33.1 °F 28.6 °F 72% 29.99 in 10.0 mi North 4.6 mph - N/A   Clear
10:55 PM 36.5 °F 32.7 °F 28.6 °F 73% 29.99 in 10.0 mi North 4.6 mph - N/A   Clear
11:15 PM 36.1 °F 31.4 °F 28.4 °F 73% 29.98 in 10.0 mi North 5.8 mph - N/A   Clear
11:35 PM 36.5 °F - 28.2 °F 72% 29.98 in 10.0 mi Calm Calm - N/A   Clear
11:55 PM 33.6 °F - 27.9 °F 79% 29.98 in 10.0 mi Calm Calm - N/A   Clear